sat.trackr.live / text

‹ back to catalog

BSAT-2A

NORAD 26720 · 2001-011B

PAYLOAD ACTIVE UNKNOWN

§ Identity

Operator
Country
JPN
Launch date
2001-03-08
Launch site
FRGUI
Launch vehicle
Mass (kg)
RCS (m²)
15.89

External: N2YO · Heavens-Above · Gunter

§ Orbital elements

Epoch: 2026-09-13T01:59:46.891104Z

Period
1,451.95 min
Inclination
10.9163°
Eccentricity
0.0006392
Mean motion
0.99177060 rev/d
Perigee alt
36,069.2 km
Apogee alt
36,123.5 km
Semi-major
42,474.4 km
B*
0.0000e+0
RAAN
46.6540°
Arg perigee
184.2545°
Mean anomaly
80.1842°
Rev number
9,284

§ Raw data

BSAT-2A1 26720U 01011B   26256.08318161 -.00000153  00000+0  00000+0 0  99972 26720  10.9163  46.6540 0006392 184.2545  80.1842  0.99177060 92848

JSON: /api/v1/satellites/26720 · /tle

For live sub-satellite position, see the globe view (requires WebGL).

§ Visibility from observer

Set your observer location to see the next 7 days of passes ≥ 10°. The values pass through the URL so the page stays shareable.

No JS? Fill the form by hand. The geolocation button needs JavaScript.